Погода в Аркаулово

Россия / Республика Башкортостан     55°23′59″N   57°55′27″E
темп.,
°C
ветер,
м/с
пор.,
м/с
влажн.,
%
обл.,
%
осадки,
мм/ч
давл.,
гПа
погр.,
м
10 апреля, сб
сб1023:00+2юв1199100 0.1 102810
02:00+1вюв11100100 0.1 102812
05:00+1юв11100100 0.1 102913
08:00+2ююв11100100 0.0 103029
11:00+3юв11100100 0.0 103148
14:00+5вюв119899 0.0 1032107
17:00+4в11100100 0.0 103237
20:00+2в11100100 0.0 103211
11 апреля, вс
вс1123:00+2ююв11100100 0.0 103216
02:00+2ююв2299100 0.0 103224
05:00+2ююв1199100 0.0 103315
08:00+2ююв229685 0.0 103332
11:00+8ююз2386100 0.0 1033122
14:00+12юз367025 0.0 1032246
17:00+12юз366595 0.0 1032160
20:00+9зюз2275100 0.0 103317
12 апреля, пн
пн1223:00+7ююз228098 0.0 103419
02:00+6ююз228371 0.0 103415
05:00+6юз2286100 0.0 103517
08:00+7ююз2286100 0.3 103518
11:00+10юз1172100 0.3 1036257
14:00+12ссв1166100 0.0 1035507
17:00+11ссв3380100 0.2 1036292
20:00+8св239496 0.3 1036158
13 апреля, вт
вт1323:00+6ссв229796 0.3 103741
02:00+6св229788 0.0 103626
05:00+6св2297100 0.0 103741
08:00+6св1194100 0.0 103736
11:00+8всв1187100 0.0 1036164
14:00+12ссв117415 0.0 1035373
17:00+14ссв216890 0.0 1033393
20:00+11св2282100 0.0 103314
14 апреля, ср
ср1423:00+10ю018698 0.0 103210
02:00+9юз228756 0.0 103210
05:00+7юз22845 0.0 103210
08:00+8юз228110 0.0 103130
11:00+14зюз355011 0.0 1030562
14:00+16зюз45325 0.0 10281179
17:00+16з453025 0.0 10271221
20:00+12зсз22493 0.0 102710